sat.trackr.live / text

‹ back to catalog

SIT-HSE

NORAD 61763 · 2024-199AE

PAYLOAD ACTIVE UNKNOWN

§ Identity

Operator
Country
CIS
Launch date
2024-11-04
Launch site
VOSTO
Launch vehicle
Mass (kg)
RCS (m²)

External: N2YO · Heavens-Above · Gunter

§ Orbital elements

Epoch: 2026-09-22T22:09:05.988672Z

Period
92.33 min
Inclination
97.2785°
Eccentricity
0.0001361
Mean motion
15.59673645 rev/d
Perigee alt
387.7 km
Apogee alt
389.5 km
Semi-major
6,766.7 km
B*
4.5875e-4
RAAN
144.1733°
Arg perigee
280.4552°
Mean anomaly
79.6551°
Rev number
15,278

§ Raw data

SIT-HSE1 61763U 24199AE  26265.92298598  .00036595  00000+0  45875-3 0  99902 61763  97.2785 144.1733 0001361 280.4552  79.6551 15.59673645152780

JSON: /api/v1/satellites/61763 · /tle

For live sub-satellite position, see the globe view (requires WebGL).

§ Visibility from observer

Set your observer location to see the next 7 days of passes ≥ 10°. The values pass through the URL so the page stays shareable.

No JS? Fill the form by hand. The geolocation button needs JavaScript.

§ Radio — SatNOGS DB

ModeDescriptionDownlinkUplink
GMSK USP Mode U - GMSK2k4 USP 401.015 MHz

1 transmitter · refreshed weekly from db.satnogs.org